TimeEST,TemperatureF,Dew PointF,Humidity,Sea Level PressureIn,VisibilityMPH,Wind Direction,Wind SpeedMPH,Gust SpeedMPH,PrecipitationIn,Events,Conditions,WindDirDegrees,DateUTC
12:15 AM,28.4,26.6,93,30.26,3.0,Calm,Calm,-,N/A,,Clear,0,2013-01-04 05:15:00
12:35 AM,28.4,24.8,86,30.26,3.0,Calm,Calm,-,N/A,,Clear,0,2013-01-04 05:35:00
12:55 AM,28.4,26.6,93,30.25,3.0,Calm,Calm,-,N/A,,Clear,0,2013-01-04 05:55:00
1:15 AM,28.4,24.8,86,30.26,7.0,Calm,Calm,-,N/A,,Clear,0,2013-01-04 06:15:00
1:35 AM,26.6,21.2,80,30.26,4.0,Calm,Calm,-,N/A,,Clear,0,2013-01-04 06:35:00
1:55 AM,26.6,23.0,86,30.27,5.0,Calm,Calm,-,N/A,,Clear,0,2013-01-04 06:55:00
2:35 AM,26.6,24.8,93,30.28,5.0,Calm,Calm,-,N/A,,Clear,0,2013-01-04 07:35:00
2:55 AM,26.6,24.8,93,30.28,7.0,Calm,Calm,-,N/A,,Clear,0,2013-01-04 07:55:00
3:15 AM,26.6,23.0,86,30.28,7.0,Calm,Calm,-,N/A,,Clear,0,2013-01-04 08:15:00
3:35 AM,26.6,23.0,86,30.27,6.0,Calm,Calm,-,N/A,,Clear,0,2013-01-04 08:35:00
3:55 AM,26.6,21.2,80,30.27,5.0,Calm,Calm,-,N/A,,Clear,0,2013-01-04 08:55:00
4:15 AM,24.8,21.2,86,30.27,8.0,Calm,Calm,-,N/A,,Clear,0,2013-01-04 09:15:00
4:35 AM,24.8,21.2,86,30.27,6.0,Calm,Calm,-,N/A,,Clear,0,2013-01-04 09:35:00
4:55 AM,24.8,21.2,86,30.27,9.0,Calm,Calm,-,N/A,,Clear,0,2013-01-04 09:55:00
5:15 AM,24.8,21.2,86,30.27,9.0,Calm,Calm,-,N/A,,Clear,0,2013-01-04 10:15:00
5:35 AM,24.8,21.2,86,30.27,7.0,Calm,Calm,-,N/A,,Clear,0,2013-01-04 10:35:00
5:55 AM,24.8,19.4,80,30.27,8.0,Calm,Calm,-,N/A,,Clear,0,2013-01-04 10:55:00
6:15 AM,24.8,19.4,80,30.27,7.0,Calm,Calm,-,N/A,,Clear,0,2013-01-04 11:15:00
6:35 AM,24.8,19.4,80,30.28,8.0,Calm,Calm,-,N/A,,Clear,0,2013-01-04 11:35:00
6:55 AM,23.0,19.4,86,30.28,10.0,Calm,Calm,-,N/A,,Clear,0,2013-01-04 11:55:00
7:15 AM,24.8,23.0,93,30.29,8.0,Calm,Calm,-,N/A,,Clear,0,2013-01-04 12:15:00
7:35 AM,24.8,19.4,80,30.29,8.0,Calm,Calm,-,N/A,,Clear,0,2013-01-04 12:35:00
8:15 AM,28.4,24.8,86,30.30,7.0,Calm,Calm,-,N/A,,Clear,0,2013-01-04 13:15:00
8:35 AM,30.2,26.6,86,30.30,10.0,Calm,Calm,-,N/A,,Clear,0,2013-01-04 13:35:00
8:55 AM,33.8,28.4,81,30.31,8.0,Calm,Calm,-,N/A,,Clear,0,2013-01-04 13:55:00
9:15 AM,33.8,28.4,81,30.32,10.0,Calm,Calm,-,N/A,,Clear,0,2013-01-04 14:15:00
9:35 AM,35.6,28.4,75,30.33,10.0,WNW,4.6,-,N/A,,Clear,290,2013-01-04 14:35:00
9:55 AM,37.4,26.6,65,30.33,10.0,Calm,Calm,-,N/A,,Clear,0,2013-01-04 14:55:00
10:15 AM,39.2,26.6,61,30.33,10.0,NW,4.6,-,N/A,,Clear,320,2013-01-04 15:15:00
10:35 AM,41.0,26.6,57,30.33,10.0,NW,3.5,-,N/A,,Clear,320,2013-01-04 15:35:00
10:55 AM,42.8,24.8,49,30.33,10.0,NNW,5.8,-,N/A,,Clear,340,2013-01-04 15:55:00
11:15 AM,44.6,24.8,46,30.32,10.0,Calm,Calm,-,N/A,,Clear,0,2013-01-04 16:15:00
11:35 AM,44.6,24.8,46,30.31,10.0,WNW,4.6,-,N/A,,Clear,290,2013-01-04 16:35:00
11:55 AM,46.4,21.2,37,30.29,10.0,NW,8.1,-,N/A,,Clear,320,2013-01-04 16:55:00
12:15 PM,46.4,23.0,40,30.27,10.0,NW,5.8,-,N/A,,Clear,320,2013-01-04 17:15:00
12:35 PM,48.2,24.8,40,30.27,10.0,West,6.9,-,N/A,,Clear,280,2013-01-04 17:35:00
12:55 PM,48.2,23.0,37,30.26,10.0,WNW,6.9,-,N/A,,Clear,290,2013-01-04 17:55:00
1:15 PM,48.2,23.0,37,30.24,10.0,WNW,9.2,-,N/A,,Clear,300,2013-01-04 18:15:00
1:35 PM,50.0,23.0,35,30.24,10.0,WNW,8.1,-,N/A,,Clear,290,2013-01-04 18:35:00
1:55 PM,51.8,23.0,33,30.23,10.0,WSW,9.2,-,N/A,,Clear,250,2013-01-04 18:55:00
2:15 PM,51.8,23.0,33,30.22,10.0,West,6.9,-,N/A,,Clear,260,2013-01-04 19:15:00
2:35 PM,51.8,24.8,35,30.22,10.0,West,8.1,-,N/A,,Clear,280,2013-01-04 19:35:00
2:55 PM,50.0,24.8,37,30.22,10.0,WSW,6.9,-,N/A,,Clear,250,2013-01-04 19:55:00
3:15 PM,51.8,24.8,35,30.20,10.0,WSW,8.1,-,N/A,,Clear,250,2013-01-04 20:15:00
3:35 PM,50.0,23.0,35,30.20,10.0,West,3.5,-,N/A,,Clear,280,2013-01-04 20:35:00
3:55 PM,50.0,23.0,35,30.22,10.0,West,8.1,-,N/A,,Clear,270,2013-01-04 20:55:00
4:15 PM,50.0,24.8,37,30.22,10.0,West,5.8,-,N/A,,Clear,270,2013-01-04 21:15:00
4:35 PM,48.2,24.8,40,30.22,10.0,West,9.2,-,N/A,,Clear,260,2013-01-04 21:35:00
4:55 PM,48.2,24.8,40,30.22,10.0,West,5.8,-,N/A,,Clear,270,2013-01-04 21:55:00
5:15 PM,46.4,24.8,43,30.22,10.0,WSW,4.6,-,N/A,,Clear,240,2013-01-04 22:15:00
5:35 PM,42.8,24.8,49,30.22,10.0,Calm,Calm,-,N/A,,Clear,0,2013-01-04 22:35:00
5:55 PM,41.0,26.6,57,30.23,10.0,WSW,3.5,-,N/A,,Clear,250,2013-01-04 22:55:00
6:15 PM,42.8,26.6,53,30.25,10.0,West,4.6,-,N/A,,Mostly Cloudy,270,2013-01-04 23:15:00
6:35 PM,42.8,26.6,53,30.25,10.0,West,3.5,-,N/A,,Overcast,260,2013-01-04 23:35:00
6:55 PM,42.8,26.6,53,30.25,10.0,Calm,Calm,-,N/A,,Overcast,0,2013-01-04 23:55:00
7:15 PM,42.8,26.6,53,30.26,10.0,West,3.5,-,N/A,,Overcast,270,2013-01-05 00:15:00
7:35 PM,42.8,26.6,53,30.27,10.0,West,3.5,-,N/A,,Overcast,280,2013-01-05 00:35:00
7:55 PM,42.8,24.8,49,30.28,10.0,West,4.6,-,N/A,,Scattered Clouds,280,2013-01-05 00:55:00
8:15 PM,41.0,24.8,53,30.28,10.0,West,4.6,-,N/A,,Clear,270,2013-01-05 01:15:00
8:35 PM,39.2,24.8,56,30.29,10.0,Calm,Calm,-,N/A,,Clear,0,2013-01-05 01:35:00
8:55 PM,37.4,24.8,60,30.29,10.0,Calm,Calm,-,N/A,,Clear,0,2013-01-05 01:55:00
9:15 PM,37.4,24.8,60,30.29,10.0,Calm,Calm,-,N/A,,Clear,0,2013-01-05 02:15:00
9:35 PM,37.4,24.8,60,30.30,10.0,Calm,Calm,-,N/A,,Clear,0,2013-01-05 02:35:00
9:55 PM,37.4,21.2,52,30.30,10.0,Calm,Calm,-,N/A,,Clear,0,2013-01-05 02:55:00
10:15 PM,37.4,21.2,52,30.30,10.0,NNW,3.5,-,N/A,,Clear,330,2013-01-05 03:15:00
10:35 PM,37.4,19.4,48,30.31,10.0,NNW,3.5,-,N/A,,Clear,340,2013-01-05 03:35:00
10:55 PM,37.4,19.4,48,30.31,10.0,North,3.5,-,N/A,,Clear,350,2013-01-05 03:55:00
11:15 PM,35.6,17.6,48,30.31,10.0,Calm,Calm,-,N/A,,Clear,0,2013-01-05 04:15:00
11:35 PM,35.6,17.6,48,30.31,10.0,Calm,Calm,-,N/A,,Clear,0,2013-01-05 04:35:00
11:55 PM,35.6,17.6,48,30.30,10.0,NNW,5.8,-,N/A,,Clear,330,2013-01-05 04:55:00